Starlink 30578

operational
NORAD ID: 58093 Int'l Des: 2023-160 Owner: SPXS Country: US Constellation: starlink
LEOCIRCULAR

Über Starlink 30578

Beschreibung wird geladen...

Live-Position

3D-Globus wird geladen...

Nächste Überflüge

Höhenverlauf

Altitude vs Time

uPlot chart will show altitude changes over time

Zweizeiliger Elementsatz

1 58093U 23160U 25260.17434887 -.00000648 00000-0 -32932-4 0 9997
2 58093 43.0034 303.3410 0001244 273.5048 86.5652 15.02528174106818
Epoch: 17. Sept. 2025 • Age: 31 hours

Aktueller Status

Höhe 562.9 km
Geschwindigkeit 7.58 km/s
Subsatellitenpunkt -18.64°S, 31.57°W
Startdatum 18. Okt. 2023
Alter 1.9 years
Typ internet

Technische Details

Klassifizierung Payload
Masse 730.00 kg
Trockenmasse 700.00 kg
Gesamtmasse 730.00 kg
Länge 0.30 m
Durchmesser 4.10 m
Spannweite 29.00 m
Form Box + pan
Hersteller SPXS
Bus-Typ Starlink V2M
Phasenstatus In Orbit
Besitzer/Staat SPXS/US

Große Konstellationen

Loading constellations...